{"data":{"norad_id":67592,"epoch":"2026-05-25T03:34:19.278336Z","epoch_age_seconds":62437,"freshness":"FRESH","line1":"1 67592U 26018D   26145.14883424  .00015751  00000+0  48893-3 0  9991","line2":"2 67592  97.2849 210.3060 0000722 150.0053 210.1231 15.33461539 19052","mean_motion":15.33461539,"eccentricity":7.22e-5,"inclination_deg":97.2849,"raan_deg":210.306,"arg_perigee_deg":150.0053,"mean_anomaly_deg":210.1231,"bstar":0.00048893,"rev_number":1905,"period_min":93.905191840615,"perigee_km":464.9998563368,"apogee_km":465.98807664837,"semimajor_km":6843.6309664926,"source":"CELESTRAK","updated_at":"2026-05-25T13:38:21.619642Z"}}